Location: Sternwarte_Laufen
(47.9344°N, 12.9346°E)
Time: 19:53:14

ISS - Pass Details

Date: 15 March 2018
Orbit: 403 x 406 km, 51.6° (Epoch: 23 March)

Event Time Altitude Azimuth Distance (km) Brightness Sun altitude
Exits shadow 04:29:32 52° 333° (NNW) 512 -3.5 -19.4°
Maximum altitude 04:30:01 61° 16° (NNE) 467 -3.5 -19.3°
Drops below altitude 10° 04:33:16 10° 98° (E) 1,463 -0.1 -18.8°
Sets 04:35:22 0° 102° (ESE) 2,321 1.0 -18.4°
